JAZZ23 KBQK-KLAL

Flight info

Callsign JAZZ23
Flight time N/A
Altitude 5500
Route VFR
Aircraft C17/H-SDE1E2FGHIJ5RTUWXY/LB1D1

Departure

Time N/A
Airport Brunswick Golden Isles Airport (KBQK)

Arrival

Time 2026-04-22 01:43
Airport Lakeland Linder International Airport (KLAL)
Time Latitude Longitude Altitude Speed Heading
2026-04-22 00:38 25.49099 -80.38880 11 ft 0 kts 319°
2026-04-22 00:42 25.49102 -80.38883 12 ft 4 kts 314°
2026-04-22 00:42 25.49068 -80.38930 11 ft 16 kts 186°
2026-04-22 00:43 25.48881 -80.38951 11 ft 37 kts 185°
2026-04-22 00:43 25.48649 -80.39136 14 ft 45 kts 229°
2026-04-22 00:43 25.48454 -80.39386 18 ft 39 kts 228°
2026-04-22 00:43 25.48268 -80.39614 14 ft 40 kts 229°
2026-04-22 00:44 25.48094 -80.39810 11 ft 28 kts 195°
2026-04-22 00:44 25.47952 -80.39720 10 ft 22 kts 139°
2026-04-22 00:44 25.47884 -80.39612 13 ft 14 kts 66°
2026-04-22 00:44 25.47909 -80.39570 12 ft 0 kts 50°
2026-04-22 00:49 25.48018 -80.39425 17 ft 69 kts 50°
2026-04-22 00:49 25.48501 -80.38806 73 ft 131 kts 49°
2026-04-22 00:49 25.49120 -80.38015 702 ft 145 kts 49°
2026-04-22 00:50 25.49698 -80.36994 1324 ft 177 kts 75°
2026-04-22 00:50 25.49159 -80.35710 1656 ft 201 kts 150°
2026-04-22 00:50 25.47833 -80.36029 2021 ft 218 kts 224°
2026-04-22 00:50 25.47320 -80.37597 2427 ft 221 kts 276°
2026-04-22 00:51 25.47962 -80.39089 2795 ft 216 kts 324°
2026-04-22 00:51 25.49162 -80.40034 3254 ft 215 kts 333°
2026-04-22 00:51 25.50401 -80.40997 3674 ft 217 kts 330°
2026-04-22 00:51 25.51629 -80.41946 4066 ft 215 kts 332°
2026-04-22 00:52 25.52893 -80.42869 4457 ft 220 kts 333°
2026-04-22 00:52 25.54176 -80.43779 4837 ft 218 kts 333°
2026-04-22 00:52 25.54820 -80.44236 5029 ft 218 kts 332°
2026-04-22 00:52 25.56110 -80.45151 5397 ft 226 kts 333°
2026-04-22 00:53 25.57610 -80.46169 5532 ft 274 kts 333°
2026-04-22 00:53 25.59241 -80.47263 5518 ft 274 kts 333°
2026-04-22 00:53 25.60318 -80.47987 5516 ft 274 kts 333°
2026-04-22 00:53 25.62510 -80.49447 5521 ft 275 kts 333°
2026-04-22 00:54 25.63594 -80.50170 5518 ft 275 kts 333°
2026-04-22 00:54 25.65762 -80.51620 5514 ft 274 kts 333°
2026-04-22 00:54 25.66869 -80.52357 5514 ft 274 kts 333°
2026-04-22 00:54 25.69013 -80.53795 5510 ft 263 kts 333°
2026-04-22 00:55 25.70575 -80.54840 5499 ft 262 kts 333°
2026-04-22 00:55 25.71627 -80.55544 5500 ft 263 kts 333°
2026-04-22 00:55 25.74775 -80.57658 5507 ft 264 kts 333°
2026-04-22 00:56 25.76343 -80.58710 5502 ft 263 kts 333°
2026-04-22 00:56 25.77916 -80.59770 5505 ft 265 kts 333°
2026-04-22 00:56 25.79483 -80.60822 5505 ft 264 kts 333°
2026-04-22 00:56 25.81063 -80.61872 5503 ft 264 kts 333°
2026-04-22 00:57 25.82685 -80.62953 5516 ft 277 kts 333°
2026-04-22 00:57 25.84278 -80.64006 5515 ft 277 kts 333°
2026-04-22 00:57 25.85981 -80.65126 5516 ft 275 kts 333°
2026-04-22 00:57 25.87597 -80.66209 5515 ft 275 kts 333°
2026-04-22 00:58 25.89257 -80.67321 5516 ft 276 kts 333°
2026-04-22 00:58 25.90878 -80.68402 5515 ft 276 kts 333°
2026-04-22 00:58 25.92528 -80.69496 5516 ft 274 kts 333°
2026-04-22 00:58 25.94173 -80.70588 5513 ft 275 kts 333°
2026-04-22 00:59 25.95835 -80.71698 5514 ft 276 kts 333°
2026-04-22 00:59 25.97460 -80.72785 5516 ft 275 kts 333°
2026-04-22 00:59 25.99098 -80.73879 5514 ft 276 kts 333°
2026-04-22 00:59 26.00741 -80.74977 5515 ft 276 kts 333°
2026-04-22 01:00 26.02386 -80.76074 5516 ft 274 kts 333°
2026-04-22 01:00 26.04030 -80.77172 5517 ft 276 kts 333°
2026-04-22 01:00 26.05674 -80.78276 5514 ft 275 kts 333°
2026-04-22 01:00 26.07312 -80.79373 5514 ft 282 kts 332°
2026-04-22 01:01 26.09088 -80.80566 5525 ft 299 kts 333°
2026-04-22 01:01 26.10880 -80.81750 5524 ft 301 kts 333°
2026-04-22 01:01 26.12695 -80.82935 5523 ft 303 kts 333°
2026-04-22 01:01 26.14504 -80.84124 5522 ft 301 kts 333°
2026-04-22 01:02 26.16302 -80.85311 5513 ft 303 kts 333°
2026-04-22 01:02 26.18125 -80.86512 5516 ft 303 kts 333°
2026-04-22 01:02 26.19919 -80.87688 5517 ft 301 kts 333°
2026-04-22 01:02 26.21745 -80.88881 5532 ft 302 kts 333°
2026-04-22 01:03 26.23561 -80.90065 5532 ft 302 kts 333°
2026-04-22 01:03 26.25377 -80.91258 5532 ft 302 kts 333°
2026-04-22 01:03 26.27192 -80.92445 5530 ft 302 kts 333°
2026-04-22 01:03 26.28999 -80.93618 5530 ft 303 kts 333°
2026-04-22 01:04 26.30824 -80.94805 5529 ft 302 kts 333°
2026-04-22 01:04 26.32646 -80.95984 5529 ft 303 kts 333°
2026-04-22 01:04 26.34456 -80.97162 5529 ft 304 kts 333°
2026-04-22 01:04 26.36288 -80.98363 5529 ft 302 kts 333°
2026-04-22 01:05 26.38094 -80.99550 5530 ft 303 kts 333°
2026-04-22 01:05 26.39920 -81.00738 5528 ft 303 kts 333°
2026-04-22 01:05 26.41742 -81.01922 5535 ft 302 kts 333°
2026-04-22 01:05 26.43565 -81.03106 5536 ft 304 kts 333°
2026-04-22 01:06 26.45392 -81.04291 5531 ft 303 kts 333°
2026-04-22 01:06 26.47199 -81.05468 5532 ft 303 kts 333°
2026-04-22 01:06 26.49032 -81.06659 5528 ft 303 kts 333°
2026-04-22 01:06 26.50852 -81.07830 5527 ft 302 kts 333°
2026-04-22 01:07 26.52663 -81.08995 5531 ft 304 kts 333°
2026-04-22 01:07 26.54512 -81.10189 5529 ft 303 kts 333°
2026-04-22 01:07 26.56333 -81.11366 5529 ft 302 kts 333°
2026-04-22 01:07 26.58154 -81.12541 5531 ft 304 kts 333°
2026-04-22 01:08 26.59987 -81.13724 5553 ft 302 kts 333°
2026-04-22 01:08 26.61789 -81.14887 5817 ft 302 kts 333°
2026-04-22 01:08 26.63632 -81.16078 6072 ft 305 kts 333°
2026-04-22 01:08 26.65439 -81.17245 6315 ft 305 kts 333°
2026-04-22 01:09 26.67306 -81.18439 6574 ft 306 kts 333°
2026-04-22 01:09 26.69174 -81.19618 6826 ft 309 kts 333°
2026-04-22 01:09 26.71056 -81.20767 7068 ft 306 kts 338°
2026-04-22 01:09 26.73042 -81.21611 7320 ft 308 kts 342°
2026-04-22 01:10 26.75033 -81.22538 7481 ft 312 kts 338°
2026-04-22 01:10 26.76993 -81.23546 7529 ft 310 kts 338°
2026-04-22 01:10 26.79003 -81.24467 7546 ft 310 kts 341°
2026-04-22 01:10 26.80976 -81.25319 7544 ft 310 kts 340°
2026-04-22 01:11 26.82967 -81.26255 7552 ft 309 kts 339°
2026-04-22 01:11 26.84972 -81.27214 7552 ft 309 kts 340°
2026-04-22 01:11 26.86939 -81.28104 7550 ft 309 kts 340°
2026-04-22 01:11 26.88953 -81.29031 7508 ft 310 kts 339°
2026-04-22 01:12 26.90940 -81.29960 7505 ft 308 kts 339°
2026-04-22 01:12 26.92892 -81.30867 7509 ft 308 kts 340°
2026-04-22 01:12 26.94884 -81.31783 7504 ft 309 kts 340°
2026-04-22 01:12 26.96867 -81.32702 7502 ft 308 kts 339°
2026-04-22 01:13 26.98839 -81.33627 7508 ft 308 kts 340°
2026-04-22 01:13 27.00827 -81.34541 7501 ft 308 kts 340°
2026-04-22 01:13 27.02805 -81.35457 7507 ft 309 kts 339°
2026-04-22 01:13 27.04795 -81.36385 7513 ft 308 kts 340°
2026-04-22 01:14 27.06768 -81.37306 7508 ft 308 kts 339°
2026-04-22 01:14 27.08745 -81.38223 7512 ft 308 kts 340°
2026-04-22 01:14 27.10735 -81.39136 7514 ft 309 kts 340°
2026-04-22 01:14 27.12713 -81.40064 7515 ft 307 kts 339°
2026-04-22 01:15 27.14693 -81.40995 7511 ft 308 kts 340°
2026-04-22 01:15 27.16676 -81.41911 7520 ft 309 kts 340°
2026-04-22 01:15 27.18570 -81.42791 7504 ft 307 kts 340°
2026-04-22 01:15 27.20536 -81.43707 7507 ft 308 kts 340°
2026-04-22 01:16 27.22521 -81.44633 7512 ft 308 kts 339°
2026-04-22 01:16 27.24507 -81.45559 7510 ft 307 kts 339°
2026-04-22 01:16 27.26466 -81.46469 7538 ft 307 kts 340°
2026-04-22 01:16 27.28453 -81.47397 7518 ft 309 kts 339°
2026-04-22 01:17 27.30425 -81.48320 7512 ft 307 kts 340°
2026-04-22 01:17 27.32406 -81.49243 7520 ft 307 kts 340°
2026-04-22 01:17 27.34386 -81.50165 7334 ft 309 kts 340°
2026-04-22 01:17 27.36338 -81.51079 7072 ft 294 kts 340°
2026-04-22 01:18 27.38164 -81.51941 6782 ft 275 kts 340°
2026-04-22 01:18 27.39864 -81.52738 6495 ft 257 kts 341°
2026-04-22 01:18 27.41498 -81.53487 6211 ft 250 kts 341°
2026-04-22 01:18 27.42190 -81.53809 6087 ft 250 kts 340°
2026-04-22 01:19 27.43797 -81.54574 5834 ft 252 kts 340°
2026-04-22 01:19 27.45419 -81.55328 5563 ft 250 kts 341°
2026-04-22 01:19 27.46985 -81.56062 5311 ft 249 kts 341°
2026-04-22 01:19 27.48608 -81.56821 5043 ft 250 kts 341°
2026-04-22 01:20 27.50194 -81.57577 4797 ft 250 kts 341°
2026-04-22 01:20 27.51797 -81.58318 4520 ft 249 kts 341°
2026-04-22 01:20 27.53408 -81.59068 4250 ft 248 kts 341°
2026-04-22 01:20 27.55008 -81.59813 3984 ft 249 kts 342°
2026-04-22 01:21 27.56605 -81.60567 3735 ft 249 kts 341°
2026-04-22 01:21 27.58202 -81.61326 3477 ft 249 kts 342°
2026-04-22 01:21 27.59794 -81.62069 3210 ft 248 kts 342°
2026-04-22 01:21 27.61411 -81.62823 2947 ft 251 kts 343°
2026-04-22 01:22 27.63001 -81.63580 2694 ft 243 kts 342°
2026-04-22 01:22 27.64522 -81.64288 2427 ft 232 kts 342°
2026-04-22 01:22 27.65982 -81.64969 2247 ft 218 kts 341°
2026-04-22 01:22 27.67376 -81.65627 2220 ft 219 kts 344°
2026-04-22 01:23 27.68832 -81.66125 2236 ft 218 kts 348°
2026-04-22 01:23 27.70276 -81.66578 2210 ft 208 kts 348°
2026-04-22 01:23 27.71613 -81.67017 2208 ft 193 kts 348°
2026-04-22 01:23 27.72876 -81.67423 2199 ft 183 kts 348°
2026-04-22 01:24 27.74127 -81.67844 2237 ft 191 kts 347°
2026-04-22 01:24 27.75399 -81.68278 2206 ft 189 kts 348°
2026-04-22 01:24 27.76643 -81.68683 2244 ft 187 kts 349°
2026-04-22 01:24 27.77914 -81.69089 2248 ft 192 kts 349°
2026-04-22 01:25 27.79199 -81.69514 2208 ft 187 kts 348°
2026-04-22 01:25 27.80443 -81.69942 2219 ft 189 kts 347°
2026-04-22 01:25 27.81705 -81.70364 2242 ft 186 kts 349°
2026-04-22 01:25 27.82984 -81.70775 2263 ft 190 kts 348°
2026-04-22 01:26 27.84238 -81.71188 2240 ft 184 kts 349°
2026-04-22 01:26 27.85490 -81.71580 2224 ft 190 kts 348°
2026-04-22 01:26 27.86742 -81.72012 2224 ft 187 kts 348°
2026-04-22 01:26 27.88006 -81.72434 2237 ft 191 kts 348°
2026-04-22 01:27 27.89271 -81.72858 2233 ft 188 kts 348°
2026-04-22 01:27 27.90527 -81.73272 2223 ft 187 kts 348°
2026-04-22 01:27 27.91783 -81.73691 2239 ft 189 kts 348°
2026-04-22 01:27 27.93053 -81.74111 2232 ft 190 kts 348°
2026-04-22 01:28 27.94319 -81.74530 2213 ft 188 kts 348°
2026-04-22 01:28 27.95567 -81.74950 2247 ft 189 kts 348°
2026-04-22 01:28 27.96770 -81.75352 2232 ft 173 kts 348°
2026-04-22 01:28 27.97942 -81.75746 2255 ft 179 kts 348°
2026-04-22 01:29 27.99128 -81.76144 2236 ft 176 kts 348°
2026-04-22 01:29 28.00316 -81.76548 2246 ft 179 kts 348°
2026-04-22 01:29 28.01541 -81.76901 2236 ft 180 kts 354°
2026-04-22 01:29 28.02762 -81.77168 2237 ft 179 kts 354°
2026-04-22 01:30 28.03994 -81.77402 2220 ft 179 kts 358°
2026-04-22 01:30 28.05186 -81.77554 2223 ft 164 kts 359°
2026-04-22 01:30 28.06334 -81.77727 2240 ft 169 kts 357°
2026-04-22 01:30 28.07497 -81.77920 2236 ft 168 kts 358°
2026-04-22 01:31 28.08659 -81.78092 2217 ft 168 kts 358°
2026-04-22 01:31 28.09797 -81.78225 2249 ft 164 kts
2026-04-22 01:31 28.10971 -81.78336 2236 ft 169 kts
2026-04-22 01:31 28.12119 -81.78457 2247 ft 168 kts
2026-04-22 01:32 28.13299 -81.78595 2239 ft 169 kts
2026-04-22 01:32 28.14435 -81.78675 2223 ft 164 kts
2026-04-22 01:32 28.15590 -81.78820 2240 ft 168 kts 358°
2026-04-22 01:32 28.16748 -81.78981 2254 ft 163 kts
2026-04-22 01:33 28.17899 -81.79081 2235 ft 166 kts
2026-04-22 01:33 28.18995 -81.79514 2218 ft 176 kts 320°
2026-04-22 01:33 28.19323 -81.80825 2385 ft 190 kts 259°
2026-04-22 01:33 28.18527 -81.81889 2116 ft 170 kts 189°
2026-04-22 01:34 28.17389 -81.82063 2206 ft 173 kts 187°
2026-04-22 01:34 28.16300 -81.82605 2213 ft 170 kts 202°
2026-04-22 01:34 28.15304 -81.83071 2192 ft 148 kts 191°
2026-04-22 01:34 28.14321 -81.83397 2190 ft 147 kts 187°
2026-04-22 01:35 28.13312 -81.83591 2194 ft 149 kts 182°
2026-04-22 01:35 28.12324 -81.83800 2188 ft 137 kts 185°
2026-04-22 01:35 28.11399 -81.84003 2190 ft 137 kts 184°
2026-04-22 01:35 28.10619 -81.84646 2082 ft 153 kts 246°
2026-04-22 01:36 28.10421 -81.85765 2193 ft 148 kts 250°
2026-04-22 01:36 28.09900 -81.86773 2202 ft 148 kts 232°
2026-04-22 01:36 28.09474 -81.87850 2205 ft 152 kts 252°
2026-04-22 01:36 28.09155 -81.88971 2213 ft 146 kts 246°
2026-04-22 01:37 28.08768 -81.90006 2202 ft 141 kts 246°
2026-04-22 01:37 28.08660 -81.91116 2203 ft 142 kts 270°
2026-04-22 01:37 28.08535 -81.92240 2200 ft 141 kts 257°
2026-04-22 01:37 28.08284 -81.93316 2152 ft 143 kts 251°
2026-04-22 01:38 28.07977 -81.94382 2109 ft 142 kts 249°
2026-04-22 01:38 28.07664 -81.95419 2162 ft 140 kts 249°
2026-04-22 01:38 28.07411 -81.96489 2214 ft 142 kts 258°
2026-04-22 01:38 28.07315 -81.97215 2276 ft 139 kts 259°
2026-04-22 01:39 28.07205 -81.98101 2337 ft 142 kts 262°
2026-04-22 01:39 28.06890 -81.99143 2401 ft 140 kts 235°
2026-04-22 01:39 28.06256 -81.99991 2326 ft 141 kts 219°
2026-04-22 01:39 28.05517 -82.00649 2243 ft 133 kts 206°
2026-04-22 01:40 28.04700 -82.01115 2158 ft 130 kts 196°
2026-04-22 01:40 28.03859 -82.01462 2104 ft 128 kts 192°
2026-04-22 01:40 28.03022 -82.01744 2051 ft 127 kts 188°
2026-04-22 01:40 28.02252 -82.02263 1891 ft 142 kts 229°
2026-04-22 01:41 28.02081 -82.03327 1685 ft 139 kts 283°
2026-04-22 01:41 28.02277 -82.04220 1566 ft 134 kts 274°
2026-04-22 01:41 28.02039 -82.05213 1500 ft 130 kts 240°
2026-04-22 01:41 28.01375 -82.05864 1353 ft 130 kts 197°
2026-04-22 01:42 28.00508 -82.05885 1083 ft 125 kts 168°
2026-04-22 01:42 27.99666 -82.05749 892 ft 116 kts 159°
2026-04-22 01:42 27.99093 -82.05170 714 ft 118 kts 117°
2026-04-22 01:42 27.98923 -82.04274 426 ft 121 kts 89°
2026-04-22 01:43 27.98923 -82.03337 180 ft 116 kts 89°
2026-04-22 01:43 27.98924 -82.02555 144 ft 74 kts 90°
2026-04-22 01:43 27.98925 -82.02159 145 ft 35 kts 90°
2026-04-22 01:43 27.98927 -82.01799 147 ft 56 kts 89°
2026-04-22 01:44 27.98928 -82.01416 146 ft 36 kts 89°
2026-04-22 01:44 27.98929 -82.01150 145 ft 33 kts 89°
2026-04-22 01:44 27.98929 -82.00876 146 ft 27 kts 90°
2026-04-22 01:44 27.98959 -82.00768 146 ft 10 kts 19°
2026-04-22 01:45 27.99024 -82.00768 146 ft 13 kts 353°
2026-04-22 01:45 27.99164 -82.00791 145 ft 26 kts 332°
2026-04-22 01:45 27.99266 -82.00903 146 ft 16 kts 315°
2026-04-22 01:45 27.99288 -82.00971 147 ft 8 kts 251°
2026-04-22 01:46 27.99258 -82.01015 147 ft 6 kts 224°
2026-04-22 01:46 27.99223 -82.01054 148 ft 12 kts 224°
2026-04-22 01:46 27.99211 -82.01066 148 ft 0 kts 224°
2026-04-22 01:48 27.99201 -82.01078 147 ft 15 kts 224°
2026-04-22 01:49 27.99124 -82.01163 146 ft 0 kts 224°
2026-04-22 01:50 27.99105 -82.01185 146 ft 0 kts 224°
2026-04-22 01:51 27.99060 -82.01234 145 ft 23 kts 224°
2026-04-22 01:51 27.98934 -82.01377 146 ft 25 kts 225°
2026-04-22 01:51 27.98824 -82.01502 147 ft 20 kts 225°
2026-04-22 01:52 27.98731 -82.01605 148 ft 18 kts 224°
2026-04-22 01:52 27.98652 -82.01708 148 ft 16 kts 237°
2026-04-22 01:52 27.98593 -82.01813 148 ft 14 kts 235°
2026-04-22 01:52 27.98544 -82.01878 147 ft 8 kts 228°
2026-04-22 01:53 27.98506 -82.01926 147 ft 11 kts 228°
2026-04-22 01:53 27.98415 -82.01926 147 ft 15 kts 116°
2026-04-22 01:53 27.98431 -82.01881 147 ft 2 kts 19°
2026-04-22 01:53 27.98447 -82.01883 147 ft 0 kts 347°